Kuchera_Ratio
0.0 0.0 0.0 0.0 0.0 0.0 0.0 0.0 0.0 0.0 0.0 0.0 0.0 0.0 0.0 0.0 0.0 0.0 0.0 0.0 0.0 0.0
0.0 0.0 0.0 0.0 0.0 0.0 0.0 0.0 0.0 0.0 0.0 0.0 0.0 0.0 0.0 0.0 0.0 0.0 0.0 0.0 0.0 0.0
0.0 0.0 0.0 0.0 0.0 0.0 0.0 0.0 0.0 0.0 0.0 0.0 0.0 0.0 0.0 0.0 0.0 0.0 0.0 0.0 0.0 0.0
0.0 0.0 0.0 0.0 0.0 0.0 0.0 0.0 0.0 0.0 0.0 0.0 0.0 0.0 0.0 0.0 0.0 0.0 0.0 0.0 0.0 0.7
0.0 0.0 0.0 0.0 0.0 0.0 0.0 0.0 0.0 0.0 0.0 0.0 0.0 0.0 0.0 0.0 0.0 0.6 2.0 2.5 2.0 1.2
0.0 0.0 0.0 0.0 0.0 0.0 0.0 0.0 0.0 0.0 0.0 0.0 0.0 0.0 0.0 0.9 2.6 3.8 4.7 6.3 5.7 4.1
0.0 0.0 0.0 0.0 0.0 0.0 0.0 0.0 0.0 0.0 0.0 0.0 0.0 0.0 1.7 2.6 4.2 5.9 7.7 9.1 8.6 8.0
0.0 0.0 0.0 0.0 0.0 0.0 0.0 0.0 0.0 0.0 0.0 0.0 0.8 1.0 4.1 5.3 6.3 7.3 8.6 10.0 9.4 8.6
0.0 0.0 0.0 0.0 0.0 0.0 0.0 0.3 0.4 2.2 2.6 4.6 4.0 4.4 4.6 6.8 9.2 10.2 11.2 11.6 10.4 7.8
0.0 0.0 0.0 0.0 0.3 2.4 3.4 4.1 4.3 5.8 7.2 8.0 6.6 4.6 4.8 6.8 10.2 11.4 12.2 12.1 11.6 10.8
0.0 0.0 0.5 3.0 5.2 5.2 5.9 5.8 8.3 9.4 9.0 8.2 6.8 4.6 6.2 8.8 11.8 12.5 12.7 12.8 12.4 13.4
0.7 1.9 3.6 5.7 6.9 7.8 8.5 9.6 9.9 10.0 9.2 8.6 8.2 5.2 7.4 10.8 12.6 13.2 13.3 12.7 12.3 13.1
3.0 4.8 7.1 7.8 8.0 8.4 10.1 10.8 10.8 10.8 9.8 7.8 9.0 6.8 8.2 12.0 13.3 14.5 14.4 13.4 12.8 12.1
6.4 7.4 7.4 7.8 9.2 11.3 12.1 12.1 12.5 12.8 12.5 11.0 10.8 10.0 9.0 11.0 13.6 14.6 14.8 15.0 14.5 13.3